TIANWANG 1B (TW-1B)
1 40927U 15051C   19174.44411520  .00006835  00000-0  10639-3 0  9991
2 40927  97.1374 219.9730 0008460  20.9652 103.8712 15.54186578210755
TIANWANG 1A (TW-1A)
1 40928U 15051D   19174.37077872  .00001982  00000-0  50291-4 0  9999
2 40928  97.1444 205.5712 0012939  62.1839  63.7944 15.40778924209897
LAPAN A2
1 40931U 15052B   19174.07704155  .00000730  00000-0  12576-4 0  9996
2 40931   6.0069  25.3894 0013320 216.8035 143.1109 14.76609230201915
LQSAT
1 40958U 15057A   19174.18278249 -.00000023  00000-0  41392-5 0  9997
2 40958  97.8983 243.2584 0017178 223.6254 136.3597 14.73081774199463
CHUBUSAT 2
1 41338U 16012B   19174.21626372  .00000206  00000-0  92674-5 0  9991
2 41338  31.0027 116.0139 0013810 148.4672 211.6793 15.00152323183597
CHUBUSAT 3
1 41339U 16012C   19174.18521840  .00000172  00000-0  65475-5 0  9993
2 41339  31.0086 114.2975 0013585 156.0519 204.0761 15.00327783183589
OUFTI-1
1 41458U 16025C   19174.17376167  .00000673  00000-0  38674-4 0  9994
2 41458  98.1021 261.2434 0165966 342.5533  17.0030 15.05814171173246
E-STAR-2
1 41459U 16025D   19174.45712979  .00000669  00000-0  38684-4 0  9997
2 41459  98.1011 261.2001 0167180 342.7939  16.7669 15.05452927173261
AAUSAT 4
1 41460U 16025E   19174.42689245  .00000940  00000-0  51410-4 0  9999
2 41460  98.0973 262.4247 0157201 335.6820  23.7058 15.07335270173383
NUSAT 1
1 41557U 16033B   19174.49955528  .00000691  00000-0  28645-4 0  9999
2 41557  97.4180 261.9712 0012141 282.3691  77.6189 15.27208651170824
BEESAT 4
1 41619U 16040W   19174.11380737  .00000787  00000-0  36255-4 0  9991
2 41619  97.3670 236.2552 0011671  17.1320 343.0308 15.23124239154531
PRATHAM
1 41783U 16059A   19174.11340130  .00000005  00000-0  10313-4 0  9996
2 41783  98.0670 233.5978 0033781  12.6056 347.5983 14.62995989146196
ALSAT 1N
1 41789U 16059G   19174.43996958  .00000030  00000-0  14806-4 0  9991
2 41789  98.0692 235.9209 0028545   1.5989 358.5302 14.64245224146349
NAYIF 1
1 42017U 17008BX  19173.82989931  .00000881  00000-0  37594-4 0  9999
2 42017  97.4028 240.8815 0007235 142.4519 217.7226 15.25523932130555
MAX VALIER SAT
1 42778U 17036P   19174.13076144  .00000526  00000-0  26034-4 0  9995
2 42778  97.3539 231.6999 0011703 201.0709 159.0047 15.22011938110916
